contact:dominique.lefevre@mio.osupytheas.fr, maurice.libes@osupytheas.fr, didier.mallarino@osupytheas.fr
Project:EMSO http://www.emso-fr.org/EMSO-France
Depth: 2436.0 m
Title:EMSO Ligure Ouest : Data MII capteur CSTAR
DateTime,Latitude,Longitude,Instrument_Serial,Reference_Counts,Signal_Counts,Corrected_Signal_raw_counts,Calculated_Beam_c_inverse_meters,Internal_thermistor_counts
DateTime,Latitude,Longitude,Instrument_Serial,Reference_Counts,Signal_Counts,Corrected_Signal_raw_counts,Calculated_Beam_c_inverse_meters,Internal_thermistor_counts
2023-09-13T00:01:53,42.805,6.029,CST-1368DR,4171,4578,11638,01.176,552
2023-09-13T00:04:54,42.805,6.029,CST-1368DR,4171,4578,11638,01.176,553
2023-09-13T00:07:56,42.805,6.029,CST-1368DR,4170,4578,11640,01.175,552
2023-09-13T00:10:57,42.805,6.029,CST-1368DR,4171,4576,11632,01.178,553
2023-09-13T00:13:59,42.805,6.029,CST-1368DR,4170,4577,11639,01.176,553
2023-09-13T00:17:01,42.805,6.029,CST-1368DR,4170,4577,11639,01.176,553
2023-09-13T00:20:02,42.805,6.029,CST-1368DR,4171,4577,11635,01.177,553
2023-09-13T00:23:04,42.805,6.029,CST-1368DR,4171,4577,11636,01.177,553
2023-09-13T00:26:05,42.805,6.029,CST-1368DR,4171,4577,11636,01.177,552
2023-09-13T00:29:07,42.805,6.029,CST-1368DR,4170,4576,11636,01.177,553
2023-09-13T00:32:09,42.805,6.029,CST-1368DR,4171,4578,11637,01.176,553
2023-09-13T00:35:10,42.805,6.029,CST-1368DR,4170,4577,11638,01.176,553
2023-09-13T00:38:12,42.805,6.029,CST-1368DR,4171,4578,11638,01.176,553
2023-09-13T00:41:13,42.805,6.029,CST-1368DR,4170,4577,11639,01.176,553
2023-09-13T00:44:15,42.805,6.029,CST-1368DR,4171,4577,11635,01.177,552
2023-09-13T00:47:16,42.805,6.029,CST-1368DR,4170,4577,11639,01.176,552
2023-09-13T00:50:18,42.805,6.029,CST-1368DR,4171,4578,11638,01.176,553
2023-09-13T00:53:20,42.805,6.029,CST-1368DR,4170,4577,11639,01.176,553
2023-09-13T00:56:21,42.805,6.029,CST-1368DR,4171,4577,11635,01.177,553
2023-09-13T00:59:23,42.805,6.029,CST-1368DR,4170,4577,11637,01.176,553
2023-09-13T01:02:24,42.805,6.029,CST-1368DR,4170,4577,11639,01.176,553
2023-09-13T01:05:26,42.805,6.029,CST-1368DR,4170,4577,11639,01.176,553
2023-09-13T01:08:28,42.805,6.029,CST-1368DR,4171,4577,11635,01.177,553
2023-09-13T01:11:29,42.805,6.029,CST-1368DR,4170,4577,11637,01.176,553
2023-09-13T01:14:31,42.805,6.029,CST-1368DR,4170,4576,11637,01.176,553
2023-09-13T01:17:32,42.805,6.029,CST-1368DR,4170,4577,11639,01.176,553
2023-09-13T01:20:34,42.805,6.029,CST-1368DR,4170,4577,11637,01.176,553
2023-09-13T01:23:35,42.805,6.029,CST-1368DR,4170,4577,11638,01.176,552
2023-09-13T01:26:37,42.805,6.029,CST-1368DR,4170,4578,11640,01.175,553
2023-09-13T01:29:39,42.805,6.029,CST-1368DR,4170,4578,11640,01.175,553
2023-09-13T01:32:40,42.805,6.029,CST-1368DR,4170,4578,11640,01.175,553
2023-09-13T01:35:42,42.805,6.029,CST-1368DR,4170,4578,11640,01.175,553
2023-09-13T01:38:43,42.805,6.029,CST-1368DR,4170,4578,11640,01.175,553
2023-09-13T01:41:45,42.805,6.029,CST-1368DR,4170,4578,11640,01.175,553
2023-09-13T01:44:46,42.805,6.029,CST-1368DR,4170,4578,11640,01.175,552
2023-09-13T01:47:48,42.805,6.029,CST-1368DR,4170,4578,11640,01.175,552
2023-09-13T01:50:50,42.805,6.029,CST-1368DR,4170,4578,11640,01.175,552
2023-09-13T01:53:51,42.805,6.029,CST-1368DR,4170,4577,11638,01.176,553
2023-09-13T01:56:53,42.805,6.029,CST-1368DR,4170,4577,11639,01.176,553
2023-09-13T01:59:54,42.805,6.029,CST-1368DR,4170,4577,11639,01.176,553
2023-09-13T02:02:56,42.805,6.029,CST-1368DR,4170,4576,11635,01.177,553
2023-09-13T02:05:58,42.805,6.029,CST-1368DR,4170,4576,11636,01.177,553
2023-09-13T02:08:59,42.805,6.029,CST-1368DR,4170,4577,11639,01.176,553
2023-09-13T02:12:01,42.805,6.029,CST-1368DR,4170,4578,11640,01.175,552
2023-09-13T02:15:02,42.805,6.029,CST-1368DR,4170,4577,11637,01.176,552
2023-09-13T02:18:04,42.805,6.029,CST-1368DR,4170,4577,11638,01.176,553
2023-09-13T02:21:05,42.805,6.029,CST-1368DR,4170,4577,11639,01.176,552
2023-09-13T02:24:07,42.805,6.029,CST-1368DR,4170,4577,11639,01.176,553
2023-09-13T02:27:09,42.805,6.029,CST-1368DR,4170,4577,11639,01.176,553
2023-09-13T02:30:10,42.805,6.029,CST-1368DR,4170,4578,11641,01.175,552
2023-09-13T02:33:12,42.805,6.029,CST-1368DR,4170,4579,11642,01.175,553
2023-09-13T02:36:13,42.805,6.029,CST-1368DR,4170,4578,11640,01.175,552
2023-09-13T02:39:15,42.805,6.029,CST-1368DR,4170,4577,11639,01.176,552
2023-09-13T02:42:16,42.805,6.029,CST-1368DR,4170,4578,11641,01.175,553
2023-09-13T02:45:18,42.805,6.029,CST-1368DR,4170,4578,11640,01.175,552
2023-09-13T02:48:20,42.805,6.029,CST-1368DR,4170,4578,11642,01.175,553
2023-09-13T02:51:21,42.805,6.029,CST-1368DR,4170,4577,11639,01.176,553
2023-09-13T02:54:23,42.805,6.029,CST-1368DR,4170,4576,11637,01.176,552
2023-09-13T02:57:24,42.805,6.029,CST-1368DR,4170,4578,11642,01.175,553
2023-09-13T03:00:26,42.805,6.029,CST-1368DR,4170,4578,11641,01.175,553
2023-09-13T03:03:27,42.805,6.029,CST-1368DR,4170,4578,11640,01.175,553
2023-09-13T03:06:29,42.805,6.029,CST-1368DR,4170,4578,11642,01.175,552
2023-09-13T03:09:31,42.805,6.029,CST-1368DR,4170,4577,11639,01.176,553
2023-09-13T03:12:32,42.805,6.029,CST-1368DR,4170,4577,11639,01.176,553
2023-09-13T03:15:34,42.805,6.029,CST-1368DR,4170,4577,11639,01.176,553
2023-09-13T03:18:35,42.805,6.029,CST-1368DR,4170,4579,11642,01.175,552
2023-09-13T03:21:37,42.805,6.029,CST-1368DR,4170,4577,11639,01.176,553
2023-09-13T03:24:39,42.805,6.029,CST-1368DR,4170,4578,11640,01.175,553
2023-09-13T03:27:40,42.805,6.029,CST-1368DR,4170,4577,11637,01.176,552
2023-09-13T03:30:42,42.805,6.029,CST-1368DR,4170,4578,11640,01.175,553
2023-09-13T03:33:43,42.805,6.029,CST-1368DR,4170,4578,11641,01.175,553
2023-09-13T03:36:45,42.805,6.029,CST-1368DR,4170,4578,11641,01.175,552
2023-09-13T03:39:46,42.805,6.029,CST-1368DR,4170,4578,11642,01.175,553
2023-09-13T03:42:48,42.805,6.029,CST-1368DR,4170,4578,11641,01.175,553
2023-09-13T03:45:50,42.805,6.029,CST-1368DR,4170,4578,11641,01.175,553
2023-09-13T03:48:51,42.805,6.029,CST-1368DR,4170,4578,11642,01.175,552
2023-09-13T03:51:53,42.805,6.029,CST-1368DR,4170,4577,11638,01.176,553
2023-09-13T03:54:54,42.805,6.029,CST-1368DR,4170,4578,11640,01.175,552
2023-09-13T03:57:56,42.805,6.029,CST-1368DR,4170,4577,11639,01.176,552
2023-09-13T04:00:57,42.805,6.029,CST-1368DR,4170,4576,11635,01.177,553
2023-09-13T04:03:59,42.805,6.029,CST-1368DR,4170,4577,11639,01.176,552
2023-09-13T04:07:01,42.805,6.029,CST-1368DR,4170,4576,11637,01.176,553
2023-09-13T04:10:02,42.805,6.029,CST-1368DR,4170,4577,11637,01.176,552
2023-09-13T04:13:04,42.805,6.029,CST-1368DR,4170,4576,11635,01.177,553
2023-09-13T04:16:05,42.805,6.029,CST-1368DR,4170,4578,11640,01.175,552
2023-09-13T04:19:07,42.805,6.029,CST-1368DR,4170,4577,11639,01.176,552
2023-09-13T04:22:09,42.805,6.029,CST-1368DR,4170,4575,11634,01.177,553
2023-09-13T04:25:10,42.805,6.029,CST-1368DR,4170,4577,11638,01.176,553
2023-09-13T04:28:12,42.805,6.029,CST-1368DR,4170,4577,11639,01.176,553
2023-09-13T04:31:13,42.805,6.029,CST-1368DR,4170,4577,11637,01.176,552
2023-09-13T04:34:15,42.805,6.029,CST-1368DR,4170,4576,11637,01.176,553
2023-09-13T04:37:16,42.805,6.029,CST-1368DR,4170,4576,11635,01.177,553
2023-09-13T04:40:18,42.805,6.029,CST-1368DR,4170,4577,11638,01.176,553
2023-09-13T04:43:20,42.805,6.029,CST-1368DR,4170,4577,11639,01.176,552
2023-09-13T04:46:21,42.805,6.029,CST-1368DR,4170,4577,11639,01.176,552
2023-09-13T04:49:23,42.805,6.029,CST-1368DR,4170,4578,11640,01.175,552
2023-09-13T04:52:24,42.805,6.029,CST-1368DR,4170,4577,11638,01.176,552
2023-09-13T04:55:26,42.805,6.029,CST-1368DR,4170,4577,11638,01.176,552
2023-09-13T04:58:28,42.805,6.029,CST-1368DR,4170,4577,11639,01.176,553
2023-09-13T05:01:29,42.805,6.029,CST-1368DR,4170,4578,11640,01.175,553
2023-09-13T05:04:31,42.805,6.029,CST-1368DR,4170,4577,11639,01.176,553
2023-09-13T05:07:32,42.805,6.029,CST-1368DR,4170,4576,11637,01.176,553
2023-09-13T05:10:34,42.805,6.029,CST-1368DR,4170,4577,11637,01.176,552
2023-09-13T05:13:35,42.805,6.029,CST-1368DR,4170,4578,11640,01.175,552
2023-09-13T05:16:37,42.805,6.029,CST-1368DR,4170,4578,11640,01.175,552
2023-09-13T05:19:39,42.805,6.029,CST-1368DR,4170,4578,11640,01.175,552
2023-09-13T05:22:40,42.805,6.029,CST-1368DR,4170,4578,11640,01.175,553
2023-09-13T05:25:42,42.805,6.029,CST-1368DR,4170,4577,11638,01.176,553
2023-09-13T05:28:43,42.805,6.029,CST-1368DR,4170,4576,11637,01.176,553
2023-09-13T05:31:45,42.805,6.029,CST-1368DR,4170,4576,11637,01.176,553
2023-09-13T05:34:46,42.805,6.029,CST-1368DR,4170,4578,11640,01.175,553
2023-09-13T05:37:48,42.805,6.029,CST-1368DR,4170,4575,11633,01.178,553
2023-09-13T05:40:50,42.805,6.029,CST-1368DR,4170,4576,11635,01.177,552
2023-09-13T05:43:51,42.805,6.029,CST-1368DR,4170,4576,11635,01.177,552
2023-09-13T05:46:53,42.805,6.029,CST-1368DR,4170,4576,11637,01.176,553
2023-09-13T05:49:54,42.805,6.029,CST-1368DR,4170,4577,11639,01.176,552
2023-09-13T05:52:56,42.805,6.029,CST-1368DR,4170,4577,11638,01.176,552
2023-09-13T05:55:58,42.805,6.029,CST-1368DR,4170,4578,11640,01.175,553
2023-09-13T05:58:59,42.805,6.029,CST-1368DR,4170,4576,11635,01.177,553
2023-09-13T06:02:01,42.805,6.029,CST-1368DR,4170,4575,11634,01.177,552
2023-09-13T06:05:02,42.805,6.029,CST-1368DR,4170,4577,11639,01.176,553
2023-09-13T06:08:04,42.805,6.029,CST-1368DR,4170,4578,11640,01.175,552
2023-09-13T06:11:05,42.805,6.029,CST-1368DR,4170,4577,11638,01.176,553
2023-09-13T06:14:07,42.805,6.029,CST-1368DR,4170,4577,11638,01.176,552
2023-09-13T06:17:09,42.805,6.029,CST-1368DR,4170,4577,11639,01.176,553
2023-09-13T06:20:10,42.805,6.029,CST-1368DR,4170,4577,11639,01.176,553
2023-09-13T06:23:12,42.805,6.029,CST-1368DR,4170,4577,11638,01.176,552
2023-09-13T06:26:13,42.805,6.029,CST-1368DR,4170,4577,11639,01.176,553
2023-09-13T06:29:15,42.805,6.029,CST-1368DR,4170,4577,11639,01.176,552
2023-09-13T06:32:16,42.805,6.029,CST-1368DR,4170,4578,11640,01.175,553
2023-09-13T06:35:18,42.805,6.029,CST-1368DR,4170,4577,11637,01.176,553
2023-09-13T06:38:20,42.805,6.029,CST-1368DR,4170,4577,11637,01.176,552
2023-09-13T06:41:21,42.805,6.029,CST-1368DR,4170,4578,11640,01.175,552
2023-09-13T06:44:23,42.805,6.029,CST-1368DR,4170,4578,11640,01.175,553
2023-09-13T06:47:24,42.805,6.029,CST-1368DR,4170,4577,11638,01.176,552
2023-09-13T06:50:26,42.805,6.029,CST-1368DR,4170,4576,11635,01.177,552
2023-09-13T06:53:28,42.805,6.029,CST-1368DR,4170,4577,11639,01.176,553
2023-09-13T06:56:29,42.805,6.029,CST-1368DR,4170,4578,11640,01.175,552
2023-09-13T06:59:31,42.805,6.029,CST-1368DR,4170,4576,11636,01.177,553
2023-09-13T07:02:32,42.805,6.029,CST-1368DR,4170,4575,11634,01.177,553
2023-09-13T07:05:34,42.805,6.029,CST-1368DR,4170,4577,11637,01.176,553
2023-09-13T07:08:35,42.805,6.029,CST-1368DR,4170,4575,11632,01.178,552
2023-09-13T07:11:37,42.805,6.029,CST-1368DR,4170,4577,11638,01.176,553
2023-09-13T07:14:39,42.805,6.029,CST-1368DR,4170,4577,11638,01.176,552
2023-09-13T07:17:40,42.805,6.029,CST-1368DR,4170,4576,11635,01.177,553
2023-09-13T07:20:42,42.805,6.029,CST-1368DR,4170,4578,11640,01.175,552
2023-09-13T07:23:43,42.805,6.029,CST-1368DR,4170,4577,11639,01.176,552
2023-09-13T07:26:45,42.805,6.029,CST-1368DR,4170,4577,11639,01.176,553
2023-09-13T07:29:46,42.805,6.029,CST-1368DR,4170,4577,11637,01.176,552
2023-09-13T07:32:48,42.805,6.029,CST-1368DR,4170,4577,11637,01.176,553
2023-09-13T07:35:50,42.805,6.029,CST-1368DR,4170,4578,11640,01.175,552
2023-09-13T07:38:51,42.805,6.029,CST-1368DR,4170,4577,11639,01.176,552
2023-09-13T07:41:53,42.805,6.029,CST-1368DR,4170,4578,11640,01.175,552
2023-09-13T07:44:54,42.805,6.029,CST-1368DR,4170,4577,11637,01.176,553
2023-09-13T07:47:56,42.805,6.029,CST-1368DR,4170,4577,11637,01.176,553
2023-09-13T07:50:58,42.805,6.029,CST-1368DR,4170,4577,11637,01.176,553
2023-09-13T07:53:59,42.805,6.029,CST-1368DR,4170,4578,11640,01.175,553
2023-09-13T07:57:01,42.805,6.029,CST-1368DR,4170,4577,11639,01.176,553
2023-09-13T08:00:02,42.805,6.029,CST-1368DR,4170,4577,11639,01.176,552
2023-09-13T08:03:04,42.805,6.029,CST-1368DR,4170,4577,11639,01.176,553
2023-09-13T08:06:05,42.805,6.029,CST-1368DR,4170,4580,11646,01.173,553
2023-09-13T08:09:07,42.805,6.029,CST-1368DR,4170,4576,11637,01.176,553
2023-09-13T08:12:09,42.805,6.029,CST-1368DR,4170,4578,11640,01.175,553
2023-09-13T08:15:10,42.805,6.029,CST-1368DR,4170,4578,11641,01.175,553
2023-09-13T08:18:12,42.805,6.029,CST-1368DR,4170,4577,11638,01.176,553
2023-09-13T08:21:13,42.805,6.029,CST-1368DR,4170,4577,11639,01.176,553
2023-09-13T08:24:15,42.805,6.029,CST-1368DR,4170,4578,11640,01.175,553
2023-09-13T08:27:16,42.805,6.029,CST-1368DR,4170,4577,11639,01.176,553
2023-09-13T08:30:18,42.805,6.029,CST-1368DR,4170,4578,11641,01.175,553
2023-09-13T08:33:19,42.805,6.029,CST-1368DR,4170,4578,11640,01.175,553
2023-09-13T08:36:21,42.805,6.029,CST-1368DR,4170,4577,11639,01.176,553
2023-09-13T08:39:23,42.805,6.029,CST-1368DR,4170,4577,11639,01.176,552
2023-09-13T08:42:24,42.805,6.029,CST-1368DR,4170,4577,11637,01.176,553
2023-09-13T08:45:26,42.805,6.029,CST-1368DR,4170,4577,11639,01.176,553
2023-09-13T08:48:27,42.805,6.029,CST-1368DR,4170,4576,11636,01.177,552
2023-09-13T08:51:29,42.805,6.029,CST-1368DR,4170,4577,11639,01.176,553
2023-09-13T08:54:31,42.805,6.029,CST-1368DR,4170,4578,11640,01.175,553
2023-09-13T08:57:32,42.805,6.029,CST-1368DR,4170,4578,11640,01.175,553
2023-09-13T09:00:34,42.805,6.029,CST-1368DR,4170,4578,11642,01.175,553
2023-09-13T09:03:35,42.805,6.029,CST-1368DR,4170,4578,11640,01.175,553
2023-09-13T09:06:37,42.805,6.029,CST-1368DR,4170,4577,11639,01.176,553
2023-09-13T09:09:38,42.805,6.029,CST-1368DR,4170,4577,11639,01.176,552
2023-09-13T09:12:40,42.805,6.029,CST-1368DR,4170,4578,11640,01.175,552
2023-09-13T09:15:42,42.805,6.029,CST-1368DR,4170,4576,11635,01.177,552
2023-09-13T09:18:43,42.805,6.029,CST-1368DR,4170,4577,11639,01.176,553
2023-09-13T09:21:45,42.805,6.029,CST-1368DR,4170,4573,11628,01.180,553
2023-09-13T09:24:46,42.805,6.029,CST-1368DR,4170,4577,11639,01.176,552
2023-09-13T09:27:48,42.805,6.029,CST-1368DR,4170,4578,11640,01.175,553
2023-09-13T09:30:49,42.805,6.029,CST-1368DR,4170,4575,11633,01.178,552
2023-09-13T09:33:51,42.805,6.029,CST-1368DR,4170,4578,11640,01.175,553
2023-09-13T09:36:53,42.805,6.029,CST-1368DR,4170,4577,11639,01.176,552
2023-09-13T09:39:54,42.805,6.029,CST-1368DR,4170,4576,11636,01.177,553
2023-09-13T09:42:56,42.805,6.029,CST-1368DR,4170,4576,11637,01.176,553
2023-09-13T09:50:06,42.805,6.029,CST-1368DR,4170,4576,11636,01.177,553
2023-09-13T09:53:08,42.805,6.029,CST-1368DR,4170,4577,11638,01.176,552
2023-09-13T09:56:09,42.805,6.029,CST-1368DR,4170,4577,11637,01.176,552
2023-09-13T09:59:11,42.805,6.029,CST-1368DR,4170,4577,11639,01.176,553
2023-09-13T10:02:13,42.805,6.029,CST-1368DR,4170,4577,11637,01.176,552
2023-09-13T10:05:14,42.805,6.029,CST-1368DR,4170,4577,11638,01.176,553
2023-09-13T10:08:16,42.805,6.029,CST-1368DR,4170,4576,11636,01.177,553
2023-09-13T10:11:17,42.805,6.029,CST-1368DR,4170,4577,11638,01.176,552
2023-09-13T10:14:19,42.805,6.029,CST-1368DR,4170,4577,11637,01.176,553
2023-09-13T10:17:20,42.805,6.029,CST-1368DR,4170,4577,11639,01.176,553
2023-09-13T10:20:22,42.805,6.029,CST-1368DR,4170,4577,11637,01.176,552
2023-09-13T10:23:24,42.805,6.029,CST-1368DR,4170,4577,11637,01.176,552
2023-09-13T10:26:25,42.805,6.029,CST-1368DR,4170,4576,11637,01.176,553
2023-09-13T10:29:27,42.805,6.029,CST-1368DR,4170,4577,11637,01.176,553
2023-09-13T10:32:28,42.805,6.029,CST-1368DR,4170,4576,11635,01.177,553
2023-09-13T10:35:30,42.805,6.029,CST-1368DR,4170,4578,11640,01.175,553
2023-09-13T10:38:32,42.805,6.029,CST-1368DR,4170,4576,11637,01.176,553
2023-09-13T10:41:33,42.805,6.029,CST-1368DR,4170,4576,11636,01.177,553
2023-09-13T10:44:35,42.805,6.029,CST-1368DR,4170,4576,11636,01.177,552
2023-09-13T10:47:36,42.805,6.029,CST-1368DR,4170,4577,11637,01.176,553
2023-09-13T10:50:38,42.805,6.029,CST-1368DR,4170,4576,11637,01.176,553
2023-09-13T10:53:39,42.805,6.029,CST-1368DR,4170,4577,11639,01.176,553
2023-09-13T10:56:41,42.805,6.029,CST-1368DR,4170,4577,11637,01.176,553
2023-09-13T10:59:43,42.805,6.029,CST-1368DR,4170,4577,11639,01.176,553
2023-09-13T11:02:44,42.805,6.029,CST-1368DR,4170,4577,11637,01.176,552
2023-09-13T11:05:46,42.805,6.029,CST-1368DR,4170,4577,11637,01.176,552
2023-09-13T11:08:47,42.805,6.029,CST-1368DR,4170,4577,11638,01.176,552
2023-09-13T11:11:49,42.805,6.029,CST-1368DR,4170,4575,11634,01.177,553
2023-09-13T11:14:50,42.805,6.029,CST-1368DR,4170,4577,11638,01.176,552
2023-09-13T11:17:52,42.805,6.029,CST-1368DR,4170,4577,11638,01.176,553
2023-09-13T11:20:54,42.805,6.029,CST-1368DR,4170,4576,11636,01.177,552
2023-09-13T11:23:55,42.805,6.029,CST-1368DR,4170,4577,11639,01.176,553
2023-09-13T11:26:57,42.805,6.029,CST-1368DR,4170,4578,11641,01.175,552
2023-09-13T11:29:58,42.805,6.029,CST-1368DR,4170,4577,11639,01.176,553
2023-09-13T11:33:00,42.805,6.029,CST-1368DR,4170,4575,11632,01.178,552
2023-09-13T11:36:02,42.805,6.029,CST-1368DR,4170,4577,11639,01.176,553
2023-09-13T11:39:03,42.805,6.029,CST-1368DR,4170,4575,11634,01.177,552
2023-09-13T11:42:05,42.805,6.029,CST-1368DR,4170,4578,11640,01.175,553
2023-09-13T11:45:06,42.805,6.029,CST-1368DR,4170,4577,11639,01.176,552
2023-09-13T11:48:08,42.805,6.029,CST-1368DR,4170,4577,11638,01.176,553
2023-09-13T11:51:09,42.805,6.029,CST-1368DR,4170,4576,11636,01.177,552
2023-09-13T11:54:11,42.805,6.029,CST-1368DR,4170,4576,11635,01.177,553
2023-09-13T11:57:13,42.805,6.029,CST-1368DR,4170,4577,11638,01.176,553
2023-09-13T12:00:14,42.805,6.029,CST-1368DR,4170,4575,11633,01.178,553
2023-09-13T18:35:06,42.805,6.029,CST-1368DR,4175,4578,11628,01.180,552
2023-09-13T18:38:08,42.805,6.029,CST-1368DR,4175,4579,11629,01.179,553
2023-09-13T18:41:09,42.805,6.029,CST-1368DR,4175,4578,11628,01.180,553
2023-09-13T18:44:11,42.805,6.029,CST-1368DR,4175,4577,11624,01.181,553
2023-09-13T18:47:12,42.805,6.029,CST-1368DR,4175,4578,11628,01.180,553
2023-09-13T18:50:14,42.805,6.029,CST-1368DR,4175,4580,11632,01.178,552
2023-09-13T18:53:16,42.805,6.029,CST-1368DR,4175,4578,11626,01.180,553
2023-09-13T18:56:17,42.805,6.029,CST-1368DR,4175,4578,11626,01.180,553
2023-09-13T18:59:19,42.805,6.029,CST-1368DR,4174,4579,11632,01.178,552
2023-09-13T19:02:20,42.805,6.029,CST-1368DR,4174,4579,11632,01.178,552
2023-09-13T19:05:22,42.805,6.029,CST-1368DR,4174,4578,11630,01.179,552
2023-09-13T19:08:23,42.805,6.029,CST-1368DR,4174,4577,11628,01.180,553
2023-09-13T19:11:25,42.805,6.029,CST-1368DR,4174,4577,11627,01.180,553
2023-09-13T19:14:27,42.805,6.029,CST-1368DR,4174,4577,11627,01.180,553
2023-09-13T19:17:28,42.805,6.029,CST-1368DR,4174,4576,11625,01.181,553
2023-09-13T19:20:30,42.805,6.029,CST-1368DR,4174,4578,11630,01.179,553
2023-09-13T19:23:31,42.805,6.029,CST-1368DR,4174,4578,11630,01.179,552
2023-09-13T19:26:33,42.805,6.029,CST-1368DR,4174,4576,11624,01.181,553
2023-09-13T19:29:34,42.805,6.029,CST-1368DR,4174,4576,11626,01.180,552
2023-09-13T19:32:36,42.805,6.029,CST-1368DR,4174,4578,11629,01.179,552
2023-09-13T19:35:38,42.805,6.029,CST-1368DR,4174,4584,11646,01.173,552
2023-09-13T19:38:39,42.805,6.029,CST-1368DR,4174,4577,11628,01.180,553
2023-09-13T19:41:41,42.805,6.029,CST-1368DR,4174,4579,11632,01.178,553
2023-09-13T19:44:42,42.805,6.029,CST-1368DR,4174,4579,11632,01.178,553
2023-09-13T19:47:44,42.805,6.029,CST-1368DR,4174,4578,11630,01.179,552
2023-09-13T19:50:45,42.805,6.029,CST-1368DR,4174,4578,11631,01.178,553
2023-09-13T19:53:47,42.805,6.029,CST-1368DR,4174,4578,11630,01.179,553
2023-09-13T19:56:49,42.805,6.029,CST-1368DR,4174,4579,11632,01.178,553
2023-09-13T19:59:50,42.805,6.029,CST-1368DR,4174,4579,11633,01.178,552
2023-09-13T20:02:52,42.805,6.029,CST-1368DR,4174,4578,11630,01.179,553
2023-09-13T20:05:53,42.805,6.029,CST-1368DR,4174,4577,11627,01.180,553
2023-09-13T20:08:55,42.805,6.029,CST-1368DR,4174,4577,11627,01.180,553
2023-09-13T20:11:57,42.805,6.029,CST-1368DR,4174,4578,11629,01.179,553
2023-09-13T20:14:58,42.805,6.029,CST-1368DR,4174,4577,11628,01.180,553
2023-09-13T20:18:00,42.805,6.029,CST-1368DR,4174,4577,11628,01.180,552
2023-09-13T20:21:01,42.805,6.029,CST-1368DR,4173,4575,11626,01.180,553
2023-09-13T20:24:03,42.805,6.029,CST-1368DR,4174,4578,11630,01.179,553
2023-09-13T20:27:04,42.805,6.029,CST-1368DR,4173,4577,11630,01.179,553
2023-09-13T20:30:06,42.805,6.029,CST-1368DR,4173,4577,11629,01.179,553
2023-09-13T20:33:08,42.805,6.029,CST-1368DR,4173,4578,11632,01.178,553
2023-09-13T20:36:09,42.805,6.029,CST-1368DR,4173,4577,11631,01.178,552
2023-09-13T20:39:11,42.805,6.029,CST-1368DR,4173,4577,11630,01.179,552
2023-09-13T20:42:12,42.805,6.029,CST-1368DR,4173,4577,11631,01.178,553
2023-09-13T20:45:14,42.805,6.029,CST-1368DR,4173,4577,11630,01.179,553
2023-09-13T20:48:15,42.805,6.029,CST-1368DR,4173,4578,11632,01.178,552
2023-09-13T20:51:17,42.805,6.029,CST-1368DR,4173,4577,11630,01.179,553
2023-09-13T20:54:19,42.805,6.029,CST-1368DR,4173,4576,11629,01.179,553
2023-09-13T20:57:20,42.805,6.029,CST-1368DR,4173,4578,11632,01.178,553
2023-09-13T21:00:22,42.805,6.029,CST-1368DR,4173,4577,11630,01.179,552
2023-09-13T21:03:23,42.805,6.029,CST-1368DR,4173,4577,11630,01.179,552
2023-09-13T21:06:25,42.805,6.029,CST-1368DR,4173,4578,11632,01.178,553
2023-09-13T21:09:27,42.805,6.029,CST-1368DR,4173,4577,11630,01.179,553
2023-09-13T21:12:28,42.805,6.029,CST-1368DR,4173,4577,11630,01.179,553
2023-09-13T21:15:30,42.805,6.029,CST-1368DR,4173,4576,11629,01.179,553
2023-09-13T21:18:31,42.805,6.029,CST-1368DR,4173,4578,11632,01.178,552
2023-09-13T21:21:33,42.805,6.029,CST-1368DR,4173,4577,11630,01.179,553
2023-09-13T21:24:34,42.805,6.029,CST-1368DR,4173,4577,11630,01.179,553
2023-09-13T21:27:36,42.805,6.029,CST-1368DR,4173,4577,11630,01.179,552
2023-09-13T21:30:38,42.805,6.029,CST-1368DR,4173,4577,11630,01.179,552
2023-09-13T21:33:39,42.805,6.029,CST-1368DR,4173,4577,11629,01.179,552
2023-09-13T21:36:41,42.805,6.029,CST-1368DR,4173,4575,11626,01.180,552
2023-09-13T21:39:42,42.805,6.029,CST-1368DR,4173,4576,11629,01.179,553
2023-09-13T21:42:44,42.805,6.029,CST-1368DR,4173,4575,11625,01.181,552
2023-09-13T21:45:45,42.805,6.029,CST-1368DR,4173,4577,11629,01.179,553
2023-09-13T21:48:47,42.805,6.029,CST-1368DR,4173,4575,11625,01.181,553
2023-09-13T21:51:49,42.805,6.029,CST-1368DR,4173,4574,11622,01.182,553
2023-09-13T21:54:50,42.805,6.029,CST-1368DR,4173,4577,11629,01.179,552
2023-09-13T21:57:52,42.805,6.029,CST-1368DR,4173,4576,11629,01.179,552
2023-09-13T22:00:53,42.805,6.029,CST-1368DR,4173,4577,11630,01.179,552
2023-09-13T22:03:55,42.805,6.029,CST-1368DR,4173,4577,11629,01.179,553
2023-09-13T22:06:57,42.805,6.029,CST-1368DR,4173,4577,11630,01.179,553
2023-09-13T22:09:58,42.805,6.029,CST-1368DR,4173,4576,11627,01.180,553
2023-09-13T22:13:00,42.805,6.029,CST-1368DR,4173,4575,11625,01.181,553
2023-09-13T22:16:01,42.805,6.029,CST-1368DR,4172,4575,11627,01.180,552
2023-09-13T22:19:03,42.805,6.029,CST-1368DR,4173,4576,11627,01.180,552
2023-09-13T22:22:04,42.805,6.029,CST-1368DR,4173,4577,11629,01.179,553
2023-09-13T22:25:06,42.805,6.029,CST-1368DR,4173,4576,11628,01.180,552
2023-09-13T22:28:08,42.805,6.029,CST-1368DR,4172,4576,11631,01.178,553
2023-09-13T22:31:09,42.805,6.029,CST-1368DR,4172,4576,11631,01.178,553
2023-09-13T22:34:11,42.805,6.029,CST-1368DR,4172,4576,11631,01.178,553
2023-09-13T22:37:12,42.805,6.029,CST-1368DR,4172,4576,11629,01.179,552
2023-09-13T22:40:14,42.805,6.029,CST-1368DR,4172,4576,11631,01.178,553
2023-09-13T22:43:15,42.805,6.029,CST-1368DR,4172,4575,11628,01.180,552
2023-09-13T22:46:17,42.805,6.029,CST-1368DR,4172,4575,11629,01.179,552
2023-09-13T22:49:19,42.805,6.029,CST-1368DR,4172,4576,11631,01.178,552
2023-09-13T22:52:20,42.805,6.029,CST-1368DR,4172,4575,11628,01.180,552
2023-09-13T22:55:22,42.805,6.029,CST-1368DR,4172,4574,11626,01.180,552
2023-09-13T22:58:23,42.805,6.029,CST-1368DR,4172,4576,11629,01.179,553
2023-09-13T23:01:25,42.805,6.029,CST-1368DR,4172,4576,11631,01.178,552
2023-09-13T23:04:27,42.805,6.029,CST-1368DR,4172,4574,11626,01.180,552
2023-09-13T23:07:28,42.805,6.029,CST-1368DR,4172,4576,11631,01.178,553
2023-09-13T23:10:30,42.805,6.029,CST-1368DR,4172,4575,11627,01.180,553
2023-09-13T23:13:31,42.805,6.029,CST-1368DR,4172,4575,11627,01.180,552